• In Czech Republic
  • List of Countries
  • For 7 days
  • Water Temperature
  • Satellite Maps
  • Weather Map
  • Weather Widgets
  • user-avatar
    Login

    Hourly Weather Pyshne

    Today, 17 October, Wednesday

    Time Temperature Precipitation Wind Pressure Humidity
    00:00 +17°C° 0 mm 2 mps 757 mmHg 58%
    01:00 +16°C° 0 mm 2 mps 757 mmHg 59%
    02:00 +15°C° 0 mm 2 mps 757 mmHg 62%
    03:00 +15°C° 0 mm 2 mps 757 mmHg 63%
    04:00 +15°C° 0 mm 2 mps 757 mmHg 64%
    05:00 +14°C° 0 mm 2 mps 757 mmHg 65%
    06:00 +14°C° 0 mm 3 mps 757 mmHg 63%
    07:00 +16°C° 0 mm 3 mps 757 mmHg 61%
    08:00 +17°C° 0 mm 3 mps 757 mmHg 58%
    09:00 +19°C° 0 mm 3 mps 757 mmHg 53%
    10:00 +20°C° 0 mm 4 mps 757 mmHg 48%
    11:00 +22°C° 0 mm 4 mps 757 mmHg 42%
    12:00 +23°C° 0 mm 4 mps 757 mmHg 39%
    13:00 +23°C° 0 mm 5 mps 756 mmHg 37%
    14:00 +25°C° 0 mm 5 mps 756 mmHg 34%
    15:00 +23°C° 0 mm 4 mps 756 mmHg 37%
    16:00 +21°C° 0 mm 4 mps 756 mmHg 40%
    17:00 +20°C° 0 mm 3 mps 756 mmHg 43%
    18:00 +19°C° 0 mm 3 mps 756 mmHg 46%
    19:00 +18°C° 0 mm 3 mps 756 mmHg 49%
    20:00 +18°C° 0 mm 3 mps 756 mmHg 51%
    21:00 +17°C° 0 mm 3 mps 756 mmHg 53%
    22:00 +17°C° 0 mm 3 mps 756 mmHg 55%
    23:00 +16°C° 0 mm 3 mps 756 mmHg 56%

    Tomorrow, 18 October, Thursday

    Time Temperature Precipitation Wind Pressure Humidity
    00:00 +16°C° 0 mm 3 mps 756 mmHg 58%
    01:00 +14°C° 0 mm 3 mps 756 mmHg 60%
    02:00 +14°C° 0 mm 3 mps 755 mmHg 61%
    03:00 +13°C° 0 mm 3 mps 755 mmHg 63%
    04:00 +13°C° 0 mm 3 mps 755 mmHg 64%
    05:00 +13°C° 0 mm 3 mps 755 mmHg 66%
    06:00 +13°C° 0 mm 3 mps 755 mmHg 63%
    07:00 +14°C° 0 mm 3 mps 755 mmHg 60%
    08:00 +16°C° 0 mm 3 mps 755 mmHg 58%
    09:00 +18°C° 0 mm 4 mps 755 mmHg 51%
    10:00 +20°C° 0 mm 4 mps 755 mmHg 45%
    11:00 +22°C° 0 mm 4 mps 754 mmHg 38%
    12:00 +22°C° 0 mm 4 mps 754 mmHg 36%
    13:00 +23°C° 0 mm 4 mps 754 mmHg 34%
    14:00 +25°C° 0 mm 4 mps 753 mmHg 31%
    15:00 +22°C° 0 mm 4 mps 753 mmHg 35%
    16:00 +21°C° 0 mm 3 mps 753 mmHg 38%
    17:00 +20°C° 0 mm 2 mps 752 mmHg 41%
    18:00 +19°C° 0 mm 2 mps 752 mmHg 43%
    19:00 +18°C° 0 mm 2 mps 752 mmHg 45%
    20:00 +17°C° 0 mm 2 mps 752 mmHg 47%
    21:00 +17°C° 0 mm 2 mps 752 mmHg 49%
    22:00 +16°C° 0 mm 2 mps 752 mmHg 50%
    23:00 +15°C° 0 mm 2 mps 752 mmHg 52%

    Day after tomorrow, 19 October, Friday

    Time Temperature Precipitation Wind Pressure Humidity
    00:00 +15°C° 0 mm 2 mps 752 mmHg 53%
    01:00 +14°C° 0 mm 2 mps 752 mmHg 55%
    02:00 +14°C° 0 mm 2 mps 752 mmHg 56%
    03:00 +14°C° 0 mm 2 mps 751 mmHg 58%
    04:00 +13°C° 0 mm 2 mps 751 mmHg 60%
    05:00 +13°C° 0 mm 2 mps 751 mmHg 62%
    06:00 +13°C° 0 mm 2 mps 751 mmHg 61%
    07:00 +14°C° 0 mm 2 mps 751 mmHg 60%
    08:00 +15°C° 0 mm 2 mps 751 mmHg 59%
    09:00 +16°C° 0 mm 2 mps 751 mmHg 54%
    10:00 +18°C° 0 mm 2 mps 751 mmHg 50%
    11:00 +20°C° 0 mm 2 mps 751 mmHg 45%
    12:00 +20°C° 0 mm 2 mps 750 mmHg 43%
    13:00 +22°C° 0 mm 1 mps 750 mmHg 40%
    14:00 +22°C° 0 mm 1 mps 750 mmHg 38%
    15:00 +21°C° 0 mm 1 mps 750 mmHg 40%
    16:00 +20°C° 0 mm 1 mps 749 mmHg 43%
    17:00 +19°C° 0 mm 1 mps 749 mmHg 45%
    18:00 +19°C° 0 mm 1 mps 749 mmHg 47%
    19:00 +18°C° 0 mm 1 mps 750 mmHg 49%
    20:00 +16°C° 0 mm 2 mps 750 mmHg 51%
    21:00 +16°C° 0 mm 2 mps 750 mmHg 53%
    22:00 +15°C° 0 mm 2 mps 750 mmHg 55%
    23:00 +15°C° 0 mm 2 mps 750 mmHg 57%

    20 October, Saturday

    Time Temperature Precipitation Wind Pressure Humidity
    00:00 +14°C° 0 mm 2 mps 750 mmHg 59%
    01:00 +13°C° 0 mm 3 mps 750 mmHg 61%
    02:00 +12°C° 0 mm 3 mps 750 mmHg 63%
    03:00 +12°C° 0 mm 3 mps 750 mmHg 66%
    04:00 +12°C° 0 mm 3 mps 750 mmHg 68%
    05:00 +11°C° 0 mm 3 mps 750 mmHg 70%
    06:00 +12°C° 0 mm 3 mps 750 mmHg 68%
    07:00 +13°C° 0 mm 4 mps 751 mmHg 66%
    08:00 +13°C° 0 mm 4 mps 751 mmHg 63%
    09:00 +15°C° 0 mm 4 mps 751 mmHg 57%
    10:00 +18°C° 0 mm 4 mps 751 mmHg 51%
    11:00 +20°C° 0 mm 4 mps 751 mmHg 46%
    12:00 +20°C° 0 mm 5 mps 751 mmHg 44%
    13:00 +21°C° 0 mm 5 mps 751 mmHg 43%
    14:00 +21°C° 0 mm 5 mps 751 mmHg 42%
    15:00 +20°C° 0 mm 4 mps 751 mmHg 47%
    16:00 +19°C° 0 mm 4 mps 751 mmHg 51%
    17:00 +18°C° 0 mm 4 mps 751 mmHg 56%
    18:00 +17°C° 0 mm 4 mps 752 mmHg 61%
    19:00 +15°C° 0 mm 4 mps 752 mmHg 65%
    20:00 +14°C° 0 mm 5 mps 752 mmHg 70%
    21:00 +14°C° 0 mm 5 mps 752 mmHg 73%
    22:00 +13°C° 0 mm 4 mps 752 mmHg 77%
    23:00 +12°C° 0 mm 4 mps 752 mmHg 81%

    21 October, Sunday

    Time Temperature Precipitation Wind Pressure Humidity
    00:00 +12°C° 0 mm 4 mps 752 mmHg 83%
    01:00 +11°C° 0 mm 4 mps 752 mmHg 85%
    02:00 +11°C° 0 mm 4 mps 752 mmHg 87%
    03:00 +10°C° 0 mm 4 mps 752 mmHg 88%
    04:00 +10°C° 0 mm 4 mps 752 mmHg 88%
    05:00 +10°C° 0 mm 4 mps 752 mmHg 89%
    06:00 +10°C° 0 mm 4 mps 752 mmHg 85%
    07:00 +9°C° 0 mm 5 mps 752 mmHg 81%
    08:00 +10°C° 0 mm 5 mps 753 mmHg 78%
    09:00 +12°C° 0 mm 5 mps 753 mmHg 71%
    10:00 +13°C° 0 mm 5 mps 752 mmHg 65%
    11:00 +15°C° 0 mm 5 mps 752 mmHg 58%
    12:00 +15°C° 0 mm 5 mps 752 mmHg 56%
    13:00 +16°C° 0 mm 5 mps 752 mmHg 53%
    14:00 +16°C° 0 mm 5 mps 752 mmHg 51%
    15:00 +15°C° 0 mm 5 mps 752 mmHg 53%
    16:00 +14°C° 0 mm 4 mps 752 mmHg 55%
    17:00 +14°C° 0 mm 4 mps 752 mmHg 58%
    18:00 +13°C° 0 mm 5 mps 752 mmHg 59%
    19:00 +13°C° 0 mm 5 mps 752 mmHg 61%
    20:00 +12°C° 0 mm 5 mps 753 mmHg 62%
    21:00 +12°C° 0 mm 5 mps 753 mmHg 64%
    22:00 +10°C° 0 mm 5 mps 753 mmHg 65%
    23:00 +10°C° 0 mm 5 mps 753 mmHg 66%

    22 October, Monday

    Time Temperature Precipitation Wind Pressure Humidity
    00:00 +10°C° 0 mm 5 mps 753 mmHg 66%
    01:00 +9°C° 0 mm 5 mps 753 mmHg 66%
    02:00 +9°C° 0 mm 5 mps 753 mmHg 65%
    03:00 +9°C° 0 mm 5 mps 753 mmHg 65%
    04:00 +9°C° 0 mm 5 mps 753 mmHg 64%
    05:00 +8°C° 0 mm 5 mps 753 mmHg 64%
    06:00 +9°C° 0 mm 5 mps 753 mmHg 63%
    07:00 +9°C° 0 mm 6 mps 753 mmHg 62%
    08:00 +9°C° 0 mm 6 mps 753 mmHg 62%
    09:00 +10°C° 0 mm 6 mps 753 mmHg 59%
    10:00 +13°C° 0 mm 6 mps 753 mmHg 57%
    11:00 +14°C° 0 mm 6 mps 753 mmHg 55%
    12:00 +15°C° 0 mm 6 mps 753 mmHg 54%
    13:00 +15°C° 0 mm 6 mps 752 mmHg 53%
    14:00 +16°C° 0 mm 6 mps 752 mmHg 53%
    15:00 +15°C° 0.2 mm 6 mps 752 mmHg 57%
    16:00 +15°C° 0.2 mm 5 mps 752 mmHg 62%
    17:00 +14°C° 0.2 mm 5 mps 752 mmHg 66%
    18:00 +13°C° 0.3 mm 5 mps 752 mmHg 70%
    19:00 +13°C° 0.3 mm 5 mps 751 mmHg 74%
    20:00 +13°C° 0.3 mm 5 mps 751 mmHg 78%
    21:00 +13°C° 0.4 mm 5 mps 751 mmHg 79%
    22:00 +12°C° 0.4 mm 5 mps 751 mmHg 81%
    23:00 +12°C° 0.4 mm 5 mps 750 mmHg 82%
    Show more